FW9262 Weather Reports


time (UTC)temp
C
wind
direction
speed
KPH
gust
KPH
rain 1hr
cm
rain 24hr
cm
rain mn
cm
humidity
%
barometer
mb
20260505124926 13 334 0.0 0.0 0.00 0.00 0.00 88 1016.0
20260505124423 13 334 0.0 1.6 0.00 0.00 0.00 88 1016.0
20260505123919 12 320 0.0 0.0 0.00 0.00 0.00 88 1016.0
20260505123416 12 333 0.0 0.0 0.00 0.00 0.00 88 1015.6
20260505122912 12 335 0.0 0.0 0.00 0.00 0.00 88 1015.6
20260505122409 12 337 0.0 0.0 0.00 0.00 0.00 88 1016.0
20260505121906 12 337 0.0 0.0 0.00 0.00 0.00 88 1016.0
20260505121403 12 337 0.0 0.0 0.00 0.00 0.00 87 1016.0
20260505120859 13 339 0.0 0.0 0.00 0.00 0.00 87 1016.0
20260505120355 13 337 0.0 0.0 0.00 0.00 0.00 87 1016.0
20260505115854 13 335 0.0 0.0 0.00 0.00 0.00 86 1016.0
20260505115351 13 336 0.0 0.0 0.00 0.00 0.00 86 1016.0
20260505114849 13 337 0.0 0.0 0.00 0.00 0.00 86 1016.0
20260505114346 13 321 0.0 0.0 0.00 0.00 0.00 86 1016.0
20260505113842 13 325 0.0 0.0 0.00 0.00 0.00 86 1016.0
20260505113339 13 332 0.0 0.0 0.00 0.00 0.00 85 1016.0
20260505112834 13 307 0.0 0.0 0.00 0.00 0.00 85 1016.0
20260505112332 13 323 0.0 0.0 0.00 0.00 0.00 85 1016.0
20260505111827 13 330 1.6 1.6 0.00 0.00 0.00 84 1016.0
20260505111323 13 336 0.0 0.0 0.00 0.00 0.00 84 1016.0
20260505110819 14 323 0.0 0.0 0.00 0.00 0.00 83 1016.0
20260505110317 14 335 0.0 0.0 0.00 0.00 0.00 83 1015.6
20260505101751 14 330 0.0 0.0 0.00 0.00 0.00 81 1016.0
20260505101247 14 332 0.0 0.0 0.00 0.00 0.00 81 1016.0
20260505100743 15 340 0.0 0.0 0.00 0.00 0.00 81 1016.0
20260505100240 15 341 0.0 0.0 0.00 0.00 0.00 80 1016.3
20260505095736 15 342 0.0 0.0 0.00 0.00 0.00 79 1016.0
20260505095234 15 338 0.0 0.0 0.00 0.00 0.00 79 1016.0
20260505094729 15 334 0.0 0.0 0.00 0.00 0.00 78 1016.0
20260505094226 15 337 0.0 0.0 0.00 0.00 0.00 78 1016.3
20260505093722 15 315 1.6 1.6 0.00 0.00 0.00 77 1016.6
20260505093220 15 317 0.0 1.6 0.00 0.00 0.00 77 1016.3
20260505092716 15 335 0.0 0.0 0.00 0.00 0.00 77 1016.3
20260505092215 15 328 0.0 0.0 0.00 0.00 0.00 77 1016.6
20260505091712 15 331 0.0 0.0 0.00 0.00 0.00 77 1016.6
20260505091210 15 338 0.0 0.0 0.00 0.00 0.00 76 1016.6
20260505090707 15 338 0.0 0.0 0.00 0.00 0.00 75 1016.6
20260505090205 15 343 0.0 0.0 0.00 0.00 0.00 75 1016.6
20260505085702 15 340 0.0 0.0 0.00 0.00 0.00 76 1016.6
20260505085200 15 308 0.0 0.0 0.00 0.00 0.00 78 1016.6
20260505084657 15 336 0.0 0.0 0.00 0.00 0.00 79 1016.6
20260505084156 15 336 0.0 0.0 0.00 0.00 0.00 80 1017.0
20260505083653 14 332 0.0 0.0 0.00 0.00 0.00 81 1017.0
20260505083149 14 343 0.0 0.0 0.00 0.00 0.00 82 1017.0
20260505082646 14 339 0.0 0.0 0.00 0.00 0.00 84 1016.6
20260505082143 14 339 0.0 0.0 0.00 0.00 0.00 84 1017.0
20260505081638 15 340 0.0 0.0 0.00 0.00 0.00 85 1017.0
20260505081136 15 340 0.0 0.0 0.00 0.00 0.00 85 1016.6
20260505080633 15 338 0.0 0.0 0.00 0.00 0.00 85 1017.0
20260505080129 15 341 0.0 0.0 0.00 0.00 0.00 85 1017.0
20260505075625 15 339 0.0 0.0 0.00 0.00 0.00 85 1017.0
20260505075122 15 338 0.0 0.0 0.00 0.00 0.00 85 1017.0
20260505074619 15 304 0.0 0.0 0.00 0.00 0.00 85 1017.3
20260505074116 15 325 0.0 0.0 0.00 0.00 0.00 85 1017.3
20260505073614 15 341 0.0 0.0 0.00 0.00 0.00 86 1017.3
20260505073112 15 341 0.0 0.0 0.00 0.00 0.00 86 1017.3
20260505072607 15 346 0.0 0.0 0.00 0.00 0.00 86 1017.3
20260505072104 15 336 0.0 0.0 0.00 0.00 0.00 86 1017.3
20260505071559 15 340 0.0 0.0 0.00 0.00 0.00 86 1017.0
20260505071057 15 336 0.0 0.0 0.00 0.00 0.00 86 1017.3
20260505070554 15 308 1.6 1.6 0.00 0.00 0.00 86 1017.3
20260505070050 15 266 1.6 3.2 0.00 0.00 0.00 85 1017.3
20260505065546 15 286 0.0 1.6 0.00 0.00 0.00 85 1017.0
20260505065043 15 306 0.0 0.0 0.00 0.00 0.00 85 1017.0
20260505064540 15 339 0.0 1.6 0.00 0.00 0.00 85 1017.3
20260505064038 15 312 0.0 1.6 0.00 0.00 0.00 85 1017.3
20260505063535 15 340 0.0 0.0 0.00 0.00 0.00 86 1017.0
20260505063031 15 330 0.0 1.6 0.00 0.00 0.00 86 1017.3
20260505062528 15 331 0.0 1.6 0.00 0.00 0.00 86 1017.3
20260505062025 15 340 0.0 0.0 0.00 0.00 0.00 86 1017.6
20260505061523 15 339 0.0 1.6 0.00 0.00 0.00 86 1017.0
20260505061021 15 339 0.0 3.2 0.00 0.00 0.00 86 1017.3
20260505060518 15 272 4.8 4.8 0.00 0.00 0.00 86 1017.3
20260505060014 15 318 1.6 3.2 0.00 0.00 0.00 86 1017.3
20260505055510 15 335 0.0 1.6 0.00 0.00 0.00 86 1017.3
20260505055007 15 258 1.6 3.2 0.00 0.00 0.00 85 1017.3
20260505054504 15 331 0.0 4.8 0.00 0.00 0.00 85 1017.3
20260505054002 15 297 3.2 3.2 0.00 0.00 0.00 84 1017.6
20260505053459 15 323 0.0 0.0 0.00 0.00 0.00 84 1017.6
20260505052955 15 328 0.0 0.0 0.00 0.00 0.00 84 1017.3
20260505052453 15 258 0.0 1.6 0.00 0.00 0.00 84 1017.3
20260505051950 15 313 1.6 3.2 0.00 0.00 0.00 84 1017.3
20260505051446 15 303 1.6 1.6 0.00 0.00 0.00 84 1017.3
20260505050945 15 325 0.0 0.0 0.00 0.00 0.00 84 1017.6
20260505050443 15 317 0.0 3.2 0.00 0.00 0.00 84 1017.6
20260505041410 15 305 1.6 1.6 0.00 0.00 0.00 82 1017.6
20260505040907 15 281 1.6 3.2 0.00 0.00 0.00 82 1017.6
20260505040405 15 326 1.6 3.2 0.00 0.00 0.00 81 1017.6
20260505035901 15 334 1.6 3.2 0.00 0.00 0.00 80 1017.6
20260505035357 15 334 1.6 3.2 0.00 0.00 0.00 79 1017.6
20260505034855 15 296 3.2 4.8 0.00 0.00 0.00 78 1017.6
20260505034351 15 305 1.6 3.2 0.00 0.00 0.00 78 1017.6
20260505033848 15 290 4.8 6.4 0.00 0.00 0.00 77 1017.3
20260505033345 15 217 3.2 6.4 0.00 0.00 0.00 77 1017.3
20260505032844 15 304 3.2 6.4 0.00 0.00 0.00 77 1017.3
20260505032340 15 331 0.0 3.2 0.00 0.00 0.00 77 1017.6
20260505031837 15 359 1.6 3.2 0.00 0.00 0.00 75 1017.3
20260505031333 15 342 0.0 9.7 0.00 0.00 0.00 75 1017.3
20260505030831 15 326 1.6 4.8 0.00 0.00 0.00 75 1017.3
20260505030326 15 64 0.0 3.2 0.00 0.00 0.00 75 1017.3
20260505025822 15 301 1.6 4.8 0.00 0.00 0.00 75 1017.3
20260505025320 15 265 3.2 9.7 0.00 0.00 0.00 74 1017.0
20260505024818 15 6 3.2 6.4 0.00 0.00 0.00 75 1017.0
20260505024315 15 325 1.6 4.8 0.00 0.00 0.00 74 1017.0
20260505023813 15 298 6.4 9.7 0.00 0.00 0.00 75 1017.0
20260505023309 15 272 4.8 11.3 0.00 0.00 0.00 74 1017.0
20260505022807 16 341 1.6 6.4 0.00 0.00 0.00 74 1017.0
20260505022304 15 265 4.8 9.7 0.00 0.00 0.00 74 1017.0
20260505021801 16 293 3.2 9.7 0.00 0.00 0.00 75 1017.0
20260505021257 16 321 6.4 9.7 0.00 0.00 0.00 76 1017.3
20260505020753 16 132 8.0 11.3 0.00 0.00 0.00 76 1017.0
20260505020248 16 263 6.4 11.3 0.00 0.00 0.00 76 1017.0
20260505015746 16 161 6.4 11.3 0.00 0.00 0.00 76 1017.0
20260505015243 16 261 6.4 11.3 0.00 0.00 0.00 77 1017.0
20260505014740 16 232 6.4 9.7 0.00 0.00 0.00 78 1017.0
20260505014237 16 256 6.4 9.7 0.00 0.00 0.00 78 1017.0
20260505013734 16 222 6.4 11.3 0.00 0.00 0.00 78 1017.0
20260505013231 16 284 8.0 12.9 0.00 0.00 0.00 78 1017.0
20260505012729 16 250 4.8 9.7 0.00 0.00 0.00 76 1017.6
20260505012226 16 317 4.8 6.4 0.00 0.00 0.00 76 1017.3
20260505011722 16 215 6.4 12.9 0.00 0.00 0.00 75 1017.3
20260505011219 16 302 1.6 4.8 0.00 0.00 0.00 74 1017.3
20260505010714 16 251 6.4 11.3 0.00 0.00 0.00 73 1017.3
20260505010211 16 295 3.2 12.9 0.00 0.00 0.00 73 1017.3
20260505005708 16 208 1.6 14.5 0.00 0.00 0.00 72 1017.3
20260505005205 17 261 1.6 9.7 0.00 0.00 0.00 72 1017.3
20260505004702 17 333 0.0 4.8 0.00 0.00 0.00 70 1017.6
20260505004159 17 255 3.2 12.9 0.00 0.00 0.00 71 1017.3
20260505003656 17 336 3.2 14.5 0.00 0.00 0.00 74 1017.3
20260505003153 17 227 8.0 14.5 0.00 0.00 0.00 73 1017.3
20260505002649 17 316 3.2 9.7 0.00 0.00 0.00 73 1017.3
20260505002148 17 306 8.0 12.9 0.00 0.00 0.00 71 1017.6
20260505001644 17 304 4.8 9.7 0.00 0.00 0.00 73 1017.3
20260505001142 17 204 9.7 12.9 0.00 0.00 0.00 73 1017.3
20260505000638 17 202 4.8 12.9 0.00 0.00 0.00 74 1017.3
20260505000137 17 227 6.4 9.7 0.00 0.00 0.00 74 1017.3
20260504235632 17 268 6.4 11.3 0.00 0.00 0.00 75 1017.3
20260504235129 17 220 8.0 17.7 0.00 0.00 0.00 76 1017.3
20260504234626 17 235 6.4 16.1 0.00 0.00 0.00 74 1017.0
20260504234124 18 243 1.6 9.7 0.00 0.00 0.00 72 1017.0
20260504233619 17 246 6.4 14.5 0.00 0.00 0.00 73 1017.0
20260504233115 17 319 3.2 14.5 0.00 0.00 0.00 74 1017.0
20260504232613 17 253 9.7 16.1 0.00 0.00 0.00 74 1017.3
20260504232110 18 269 9.7 14.5 0.00 0.00 0.00 73 1017.0
20260504231607 18 318 4.8 11.3 0.00 0.00 0.00 74 1017.0
20260504231103 18 191 3.2 12.9 0.00 0.00 0.00 71 1017.3
20260504230559 18 280 6.4 14.5 0.00 0.00 0.00 72 1017.6
20260504230058 18 251 4.8 11.3 0.00 0.00 0.00 71 1017.6
20260504225555 18 210 1.6 4.8 0.00 0.00 0.00 71 1017.3
20260504225052 19 194 3.2 4.8 0.00 0.00 0.00 68 1017.3
20260504224549 18 312 6.4 6.4 0.00 0.00 0.00 69 1017.6
20260504224046 18 284 4.8 12.9 0.00 0.00 0.00 69 1017.3
20260504223543 18 319 4.8 9.7 0.00 0.00 0.00 70 1017.6
20260504223038 19 298 3.2 9.7 0.00 0.00 0.00 68 1017.6
20260504222536 18 233 4.8 12.9 0.00 0.00 0.00 70 1017.6
20260504222033 18 223 8.0 16.1 0.00 0.00 0.00 71 1017.6
20260504221530 19 205 9.7 14.5 0.00 0.00 0.00 68 1018.0
20260504221027 18 247 8.0 14.5 0.00 0.00 0.00 69 1017.6
20260504220523 19 235 6.4 11.3 0.00 0.00 0.00 69 1017.6
20260504220021 19 243 3.2 9.7 0.00 0.00 0.00 68 1018.3
20260504215517 18 330 6.4 12.9 0.00 0.00 0.00 69 1018.0
20260504215014 18 264 8.0 14.5 0.00 0.00 0.00 68 1018.3
20260504214510 18 208 9.7 11.3 0.00 0.00 0.00 67 1018.3
20260504214006 18 317 4.8 16.1 0.00 0.00 0.00 69 1018.3
20260504213503 18 273 6.4 12.9 0.00 0.00 0.00 67 1018.3
20260504213001 18 304 9.7 16.1 0.00 0.00 0.00 68 1018.3
20260504212456 18 258 6.4 17.7 0.00 0.00 0.00 66 1018.3
20260504211954 18 314 4.8 14.5 0.00 0.00 0.00 67 1018.7
20260504211450 18 224 6.4 12.9 0.00 0.00 0.00 66 1018.3
20260504210948 19 277 4.8 14.5 0.00 0.00 0.00 64 1018.3
20260504210444 18 221 4.8 6.4 0.00 0.00 0.00 65 1018.7
20260504205941 18 275 8.0 11.3 0.00 0.00 0.00 64 1018.3
20260504205439 18 290 6.4 12.9 0.00 0.00 0.00 64 1018.3
20260504204937 18 358 9.7 14.5 0.00 0.00 0.00 66 1018.7
20260504204435 18 225 11.3 16.1 0.00 0.00 0.00 65 1018.3
20260504203934 18 266 6.4 17.7 0.00 0.00 0.00 63 1018.3
20260504203431 18 234 9.7 12.9 0.00 0.00 0.00 62 1018.7
20260504202927 18 315 3.2 12.9 0.00 0.00 0.00 65 1018.3
20260504202424 18 244 9.7 14.5 0.00 0.00 0.00 65 1018.3
20260504201920 18 306 6.4 14.5 0.00 0.00 0.00 64 1018.3
20260504201418 19 248 11.3 16.1 0.00 0.00 0.00 62 1018.3
20260504200915 19 196 4.8 12.9 0.00 0.00 0.00 61 1018.3
20260504200412 19 279 6.4 12.9 0.00 0.00 0.00 61 1018.7
20260504195908 19 285 4.8 11.3 0.00 0.00 0.00 61 1018.3
20260504195404 19 245 6.4 16.1 0.00 0.00 0.00 59 1018.3
20260504194901 19 300 4.8 11.3 0.00 0.00 0.00 61 1018.3
20260504194357 18 259 8.0 11.3 0.00 0.00 0.00 61 1018.3
20260504193853 19 221 6.4 11.3 0.00 0.00 0.00 61 1018.7
20260504193350 18 87 6.4 14.5 0.00 0.00 0.00 61 1018.3
20260504192849 19 131 4.8 11.3 0.00 0.00 0.00 62 1018.7
20260504192346 19 244 9.7 12.9 0.00 0.00 0.00 62 1018.7
20260504191844 19 213 6.4 11.3 0.00 0.00 0.00 64 1018.7
20260504191342 19 224 6.4 12.9 0.00 0.00 0.00 63 1018.3
20260504190837 19 324 4.8 11.3 0.00 0.00 0.00 62 1018.3
20260504190333 18 258 3.2 6.4 0.00 0.00 0.00 63 1018.7
20260504185830 18 314 6.4 12.9 0.00 0.00 0.00 64 1018.3
20260504185327 18 297 3.2 11.3 0.00 0.00 0.00 64 1018.7
20260504184823 18 230 3.2 9.7 0.00 0.00 0.00 61 1018.3
20260504184319 18 266 11.3 14.5 0.00 0.00 0.00 66 1018.7
20260504183815 18 285 8.0 14.5 0.00 0.00 0.00 66 1018.7
20260504183313 18 239 6.4 14.5 0.00 0.00 0.00 64 1018.7
20260504182810 18 271 9.7 12.9 0.00 0.00 0.00 63 1018.7
20260504182308 18 260 3.2 11.3 0.00 0.00 0.00 63 1018.7
20260504181805 18 321 8.0 14.5 0.00 0.00 0.00 64 1018.7
20260504181302 18 315 4.8 17.7 0.00 0.00 0.00 63 1018.7
20260504180801 19 256 6.4 16.1 0.00 0.00 0.00 60 1018.7
20260504180259 18 93 3.2 14.5 0.00 0.00 0.00 63 1018.7
20260504175757 18 214 4.8 16.1 0.00 0.00 0.00 65 1018.7
20260504175253 17 188 4.8 12.9 0.00 0.00 0.00 65 1018.3
20260504174751 17 225 6.4 11.3 0.00 0.00 0.00 65 1018.7
20260504174249 17 315 4.8 16.1 0.00 0.00 0.00 65 1018.7
20260504173745 17 228 9.7 12.9 0.00 0.00 0.00 66 1018.7
20260504173242 17 282 9.7 16.1 0.00 0.00 0.00 65 1018.7
20260504172739 17 292 3.2 12.9 0.00 0.00 0.00 66 1018.3
20260504172236 18 257 6.4 12.9 0.00 0.00 0.00 66 1018.7
20260504171732 18 232 4.8 14.5 0.00 0.00 0.00 64 1018.7
20260504171229 18 11 1.6 11.3 0.00 0.00 0.00 63 1018.3
20260504170726 18 241 3.2 11.3 0.00 0.00 0.00 65 1018.3
20260504170223 18 321 6.4 12.9 0.00 0.00 0.00 65 1018.0
20260504160141 17 203 1.6 6.4 0.00 0.00 0.00 66 1017.6
20260504151109 17 193 0.0 3.2 0.00 0.00 0.00 66 1017.6
20260504150606 17 315 1.6 1.6 0.00 0.00 0.00 64 1017.6
20260504150103 18 347 0.0 1.6 0.00 0.00 0.00 65 1017.6
20260504141032 14 338 0.0 0.0 0.00 0.00 0.00 80 1017.6
20260504140528 14 323 0.0 3.2 0.00 0.00 0.00 80 1017.6
20260504130453 14 332 0.0 0.0 0.00 0.00 0.00 82 1017.0